Погода Пономарёво

Погода Пономарёво : погода сейчас, прогноз погоды и архив. Всё, что Вы хотите узнать о погоде Пономарёво!

Поиск расширенной информации на нашем сайте:

Другие новости

Новости СМИ2

Главная страница сайта

Новости сайта

03.07.2017

Напоминаем, что на нашем специализированном сайте Метеоцентр.Азия вы можете получить высокодетализированные автоматические прогнозы погоды по пунктам России, СНГ и мира в авиационном формате (включающие направление и скорость ветра, видимость, явления погоды, количество и форму облачности, нижнюю и верхнюю границу облачности).


Погода Пономарёво - сегодня

Время (UTC), дата Ветер
(°,м/с) 
Видим.   Явления Облачность Т
(°С)
Тd
(°С)
f(%) Тe
(°С)
Pmin
(гПа)
dP
(гПа)
Po
(мм)
O2
(г/м3)
Тmin Tmax R s Состояние
почвы
00 20.09.17 тихо ()   20000 м  в посл. час ливневой дождь  10/10 600 м кучево-дожд. 
[Cb cap]
+8 +7.1 94 +8  1013.1  0.8  720  281  +8       
03 20.09.17 260 (З) 10 км  осадки на расстоянии  10/10 600 м кучево-дожд. 
[Cb cap]
+9.4 +7.3 87 +10  1014.3  1.4  721  280           
06 20.09.17 250 (З) 20000 м    10/10 600 м кучево-дожд. 
[Cb cap]
+9.4 +6.4 82 +10  1015.5  1.2  722  280           
09 20.09.17 200 (Ю) 10 км  слаб. ливневой дождь  10/10 600 м кучево-дожд. 
[Cb cap]
+8.5 +6.3 86 +10  1017.4  1.6  723  282           
12 20.09.17 тихо ()   4000 м  ливневой дождь  10/10 600 м кучево-дожд. 
[Cb cap]
+7 +6.8 99 +7  1019.4  1.5  724  283    +9.4     
15 20.09.17 тихо ()   н/о  слаб. ливневой дождь  10/10 600 м кучево-дожд. 
[Cb cap]
+6.2 +6 99 +6  1020.8  1.1  725  285           
18 20.09.17 тихо ()   н/о  {ливн. осадки}  8/8 600 м кучево-дожд. 
[Cb cap]
+5.2 +5 99 +5  1020.7  -0.1  725  286           
21 20.09.17 тихо ()   н/о  {ливн. осадки}  6/6 600 м кучево-дожд. 
[Cb cap]
+5 +4.8 99 +5  1020.3  -0.4  725  286           
00 21.09.17 тихо ()   20000 м  {ливн. осадки}  4/4 1000 м 
[Sc]
+4.6 +4.4 99 +5  1021.3  0.6  725  287  +4.6       
03 21.09.17 360 (С) 20000 м    4/4 1000 м 
[Sc]
+8 +6.9 93 +9  1018.8  -1.6  724  282           
06 21.09.17 тихо ()   20000 м    8/8 600 м кучево-дожд. 
[Cb cap]
+11.6 +4 60 +12  1014.4  -3.4  722  278           
09 21.09.17 тихо ()   20000 м    10/10 600 м кучево-дожд. 
[Cb cap]
+12 +4.3 59 +12  1009.1  -5.1  718  276           
12 21.09.17 110 (В) 10 км  в посл. час ливневой дождь  10/10 600 м кучево-дожд. 
[Cb cap]
+8.8 +4.8 76 +8  1008.3  -1.2  717  279    +13  0.0     
15 21.09.17 тихо ()   н/о  слаб. ливневой дождь  10/10 600 м кучево-дожд. 
[Cb cap]
+7 +6.3 95 +7  1006  -2.6  715  280           
18 21.09.17 тихо ()   н/о  слаб. ливневой дождь  10/10 600 м кучево-дожд. 
[Cb cap]
+6.8 +6.6 99 +7  1004.3  -1.6  714  279           
21 21.09.17 100 (В) н/о  {ливн. осадки}  10/10 600 м кучево-дожд. 
[Cb cap]
+6.8 +6.6 99 +8  1004  -0.9  713  279           
00 22.09.17 тихо ()   10 км  слаб. ливневой дождь  10/10 600 м кучево-дожд. 
[Cb cap]
+8.8 +8.4 97 +9  1002.5  -1  713  277  +6.8       
03 22.09.17 320 (СЗ) 4000 м  ливневой дождь  10/10 600 м кучево-дожд. 
[Cb cap]
+8.5 +8.3 99 +10  1003.7  1.1  714  277           
06 22.09.17 270 (З) 20000 м  в посл. час ливневой дождь  9/9 600 м кучево-дожд., верхняя 
[Cb cap|Ci fib]
+9 +8.8 99 +11  1004.5  0.8  714  277           
09 22.09.17 тихо ()   10 км  слаб. ливневой дождь  10/10 600 м кучево-дожд. 
[Cb cap]
+8.4 +7.3 93 +8  1006.2  1.6  715  278           
12 22.09.17 тихо ()   10 км  слаб. ливневой дождь  10/10 600 м кучево-дожд. 
[Cb cap]
+6.6 +6.4 99 +7  1009.4  2.7  717  281    +9  16     
15 22.09.17 тихо ()   н/о  слаб. ливневой дождь  10/10 600 м кучево-дожд. 
[Cb cap]
+5.4 +5.2 99 +5  1010.8  0.9  718  283           
18 22.09.17 тихо ()   н/о  {ливн. осадки}  8/8 600 м кучево-дожд. 
[Cb cap]
+5.6 +5.4 99 +6  1012  1.4  719  283           
21 22.09.17 тихо ()   н/о  слаб. ливневой дождь  10/10 600 м кучево-дожд. 
[Cb cap]
+5.2 +5 99 +5  1013  0.7  720  284           
00 23.09.17 тихо ()   20000 м  {ливн. осадки}  9/4 1000 м верхняя 
[Sc|Ci fib]
+4.5 +4.3 99 +5  1013.5  0.3  720  285  +4.5       
Время (UTC), дата Ветер
(°,м/с) 
Видим.   Явления Облачность Т
(°С)
Тd
(°С)
f(%) Тe
(°С)
Pmin
(гПа)
dP
(гПа)
Po
(мм)
O2
(г/м3)
Тmin Tmax R s Состояние
почвы

Для получения пояснительной информации подведите курсор к названию столбца.

ПОГОДА Пономарёво - архив

Всё, что Вы хотите узнать о погоде Пономарёво - удобно и подробно!

Выберите нужную дату (начиная с 1 января 2015* года) и нажмите кнопку "Найти".
Будут отображены архивные сводки погоды по пункту Пономарёво, начиная с указанной даты.


Отображать данные в формате CSV (для использования в таблицах Excel)


Внимание! Наш архив погоды предназначен исключительно для личного некоммерческого использования в познавательных целях. Если Вам необходимы официальные справки о состоянии погоды (для производственных, юридических, коммерческих и т.п. целей), обращайтесь в органы Росгидромета.

*Примечание: данная дата относится к архиву по метеостанциям СССР (Россия, СНГ, Балтия).
Архив по метеостанциям Зарубежной Европы и Азии (кроме Китая) хранится 10 дней, по другим регионам земного шара (Китай, Африка, Америка, Австралия, Океания) - 1 день.

Пономарёво - район местоположения метеостанции


Название, широта, долгота, высота метеостанции:
Пономарёво 53.7°ш. 94.2°д. 445 м над ур. моря [Российская Федерация]

Дополнительная информация

В oтличие oт бoльшинства пoгoдных сайтoв мы публикуем пoдрoбную метеoинфoрмацию в детальнoм прoфессиoнальнoм фoрмате.

Характеристики температуры и влажнoсти вoздуха измеряются на высoте 2 м в тени вдали oт зданий и деревьев.
Скoрoсть ветра измеряется на высoте 10 м (на урoвне рoста челoвека скoрoсть ветра ниже в 1.5-2 раза). Если метеoстанция нахoдится в гoрoде или в лесу, тo скoрoсть ветра занижена на 2-4 м/с пo сравнению с oткрытым местoм. Скoрoсть ветра над акватoриями крупных рек и oзёр, а также на вершинах хoлмoв на 2-5 м/с выше, чем в oбычных услoвиях.
Атмoсфернoе давление в разных тoчках местнoсти мoжет значительнo oтличаться oт давления на метеoстанции, в зависимoсти oт услoвий рельефа (при пoдъёме на 10 м давление пoнижается примернo на 1 мм рт.ст.).